This is the latest recevied weather packets stored in our database for station/object KD9NSC. If no packets are shown the sender has not sent any weather packets the latest 10 day(s).
| Time | Temp. | Humidity | Pressure | Rain* | Wind** | Luminosity | Snow |
|---|---|---|---|---|---|---|---|
| 1777741500 | 11.11° C | 52% | 1022.1 hPa | 0 mm | - | 272 W/m² | - |
| 1777741196 | 11.67° C | 51% | 1022.3 hPa | 0 mm | - | 294 W/m² | - |
| 1777740894 | 11.67° C | 52% | 1022.1 hPa | 0 mm | - | 181 W/m² | - |
| 1777740591 | 11.67° C | 53% | 1022.3 hPa | 0 mm | - | 331 W/m² | - |
| 1777740287 | 12.78° C | 49% | 1022.3 hPa | 0 mm | - | 399 W/m² | - |
| 1777739984 | 12.78° C | 49% | 1022.4 hPa | 0 mm | - | 361 W/m² | - |
| 1777739679 | 12.22° C | 50% | 1022.4 hPa | 0 mm | - | 459 W/m² | - |
| 1777739377 | 12.78° C | 50% | 1022.4 hPa | 0 mm | - | 533 W/m² | - |
| 1777739074 | 12.78° C | 48% | 1022.6 hPa | 0 mm | - | 531 W/m² | - |
| 1777738771 | 13.33° C | 51% | 1022.6 hPa | 0 mm | - | 483 W/m² | - |
| 1777738467 | 13.33° C | 46% | 1022.7 hPa | 0 mm | - | 376 W/m² | - |
| 1777738165 | 12.78° C | 50% | 1022.6 hPa | 0 mm | - | 407 W/m² | - |
| 1777737863 | 12.78° C | 48% | 1022.6 hPa | 0 mm | - | 514 W/m² | - |
| 1777737562 | 13.33° C | 49% | 1022.6 hPa | 0 mm | - | 506 W/m² | - |
| 1777737260 | 13.89° C | 47% | 1022.6 hPa | 0 mm | - | 503 W/m² | - |
| 1777736955 | 13.33° C | 48% | 1022.7 hPa | 0 mm | - | 497 W/m² | - |
| 1777736049 | 13.89° C | 47% | 1022.5 hPa | 0 mm | - | 458 W/m² | - |
| 1777735746 | 13.89° C | 49% | 1022.5 hPa | 0 mm | - | 345 W/m² | - |
| 1777735444 | 13.89° C | 50% | 1022.5 hPa | 0 mm | - | 464 W/m² | - |
| 1777735142 | 13.33° C | 49% | 1022.4 hPa | 0 mm | - | 431 W/m² | - |
| 1777734837 | 12.78° C | 50% | 1022.4 hPa | 0 mm | - | 248 W/m² | - |
| 1777734535 | 12.78° C | 51% | 1022.5 hPa | 0 mm | - | 347 W/m² | - |
| 1777734231 | 12.78° C | 51% | 1022.5 hPa | 0 mm | - | 370 W/m² | - |
| 1777733928 | 13.33° C | 54% | 1022.3 hPa | 0 mm | - | 378 W/m² | - |
| 1777733625 | 12.78° C | 54% | 1022.2 hPa | 0 mm | - | 380 W/m² | - |
* Rain latest hour (hover to see other rain measurements)
** Current wind speed in m/s (hover to see current wind gust speed)